Find Starlink 37648

NORAD ID: 100276 Int'l Des: 2026-183 Owner: SPXS Country: US Constellation: starlink operational

現在のビュー

3D地球を読み込み中...

About Starlink 37648

Starlink 37648 (NORAD 100276) is a starlink constellation satellite launched Aug 11, 2026 by SPXS of US. with a mass of 575.00 kg.

次回通過

Passes for default location (London). Set your location on the main map for personalized predictions.

高度履歴

Loading altitude history...

軌道要素

1 A0276U 26183E 26262.49060091 -.00465144 00000-0 -68317-2 0 9995
2 A0276 53.1591 262.4651 0001202 68.5933 291.5207 15.56472335 6144
Epoch: Sep 19, 2026 • Age: 29 hours

現在のステータス

高度 412.9 km
遠地点 / 近地点 N/A
速度 7.66 km/s
衛星直下点 -34.58°S, 139.28°W
打ち上げ日 Aug 11, 2026
運用期間 0.1 years
タイプ internet

技術仕様

分類 Payload
質量 575.00 kg
乾燥質量 530.00 kg
長さ 0.30 m
スパン 29.00 m
形状 ? Box + pan
製造者 SPXS
バスタイプ Starlink V2MO
フェーズステータス In Orbit
所有者/国 SPXS/US

Most Searched